Location: SE Lincoln, NE
(40.7805°N, 96.6275°W)
Time: 01:35:10
(UTC-05:00)

Daily predictions for brighter satellites

Satellite Brightness Start Highest point End
(mag) Time Altitude Azimuth Time Altitude Azimuth Time Altitude Azimuth
SL-16 R/B 3.7 00:13:21 10° NW 00:17:29 28° W 00:17:29 28° W
Cosmos 2219 Rocket 3.1 00:15:19 10° NNW 00:19:48 42° NNE 00:19:48 42° NNE
Cosmos 1725 Rocket 4.3 00:22:44 60° WNW 00:22:44 60° WNW 00:28:52 10° N
Lacrosse 4 Rocket 3.8 00:27:15 20° N 00:27:15 20° N 00:28:43 10° NNE
Cosmos 2322 4.3 00:20:03 10° NNW 00:24:22 52° N 00:24:22 52° N
Cosmos 2322 Rocket 3.9 00:32:46 10° NW 00:36:12 23° W 00:36:12 23° W
Cosmos 2360 Rocket 3.6 00:43:26 10° NW 00:46:53 30° WNW 00:46:53 30° WNW
Terra 4.4 00:50:05 13° WNW 00:50:05 13° WNW 00:51:21 10° WNW
USA 234 4.1 00:52:02 37° W 00:52:02 37° W 00:56:26 10° WNW
Cosmos 2297 Rocket 4.1 01:04:05 21° NE 01:04:05 21° NE 01:06:15 10° NE
ATLAS 3B R/B 4.1 00:57:41 17° W 01:01:46 31° NW 01:07:35 10° NNE
COSMOS 2428 3.7 01:00:04 10° NNW 01:03:54 44° NNW 01:03:54 44° NNW
Cosmos 2237 Rocket 3.3 01:12:16 10° NNW 01:16:20 38° NNE 01:16:20 38° NNE
Cosmos 2333 Rocket 3.6 01:18:41 10° NW 01:21:53 31° NW 01:21:53 31° NW
Cosmos 2034 Rocket 4.5 01:43:55 57° N 01:43:55 57° N 01:48:51 10° N
Cosmos 2227 Rocket 3.3 01:53:19 40° NNE 01:53:19 40° NNE 01:56:54 10° NNE
CZ-2D R/B 4.3 01:52:33 10° NE 01:55:07 18° ENE 01:55:07 18° ENE
Cosmos 2219 Rocket 4.3 01:59:55 10° NW 02:01:30 17° WNW 02:01:30 17° WNW
SL-16 R/B 3.9 02:07:03 28° E 02:08:22 30° ENE 02:13:40 10° N
USA 229 DEB 4.3 02:25:54 45° E 02:25:54 45° E 02:31:10 10° NE
USA 229 4.3 02:26:00 44° E 02:26:00 44° E 02:31:13 10° NE
Cosmos 2344 4.4 02:15:05 10° NW 02:25:07 86° WSW 02:30:28 44° SSE
SL-16 R/B 2.9 02:25:27 10° NNW 02:29:52 51° N 02:29:52 51° N
Cosmos 2263 Rocket 4.0 02:34:13 22° E 02:34:13 22° E 02:37:35 10° NE
Resurs 1-4 Rocket 3.3 02:31:03 10° NNE 02:34:48 36° ENE 02:34:48 36° ENE
NOSS 3-1 (A) 4.5 02:37:39 33° E 02:37:39 33° E 02:41:44 10° NE
Cosmos 1607 4.2 02:31:38 10° NNW 02:37:07 66° NNW 02:37:07 66° NNW
Cosmos 2279 Rocket 4.2 02:39:37 67° NE 02:39:37 67° NE 02:45:04 10° N
Cosmos 2026 Rocket 4.4 02:35:32 10° NNW 02:40:20 55° NNW 02:40:20 55° NNW
SJ 16-02 3.2 02:45:17 28° N 02:45:17 28° N 02:47:27 10° NNE
Cosmos 2297 Rocket 3.4 02:45:52 33° NW 02:45:52 33° NW 02:50:18 10° N
Meteor 1-24 Rocket 4.1 02:53:06 10° N 02:57:27 56° NNE 02:57:27 56° NNE
Cosmos 2237 Rocket 4.3 02:56:56 10° NW 02:58:07 15° WNW 02:58:07 15° WNW
Cosmos 1455 Rocket 4.4 03:07:23 38° NNE 03:07:23 38° NNE 03:10:16 10° NNE
USA 215 4.3 03:02:00 10° ENE 03:07:40 31° SE 03:07:40 31° SE
ADEOS II 3.2 03:06:21 10° NNE 03:11:06 34° E 03:11:15 34° E
ATLAS 3B CENTAUR R/B 4.4 02:59:36 10° W 03:18:51 47° SSW 03:28:11 10° SE
Meteor 2-19 Rocket 4.3 03:12:41 10° N 03:18:42 81° WNW 03:18:42 81° WNW
GEOS 3 Rocket 3.8 03:15:56 10° NNE 03:21:02 69° NNW 03:21:02 69° NNW
Cosmos 1937 Rocket 3.7 03:23:02 68° N 03:23:02 68° N 03:27:42 10° NNE
AQUA 4.3 03:18:34 10° NNE 03:22:27 58° NE 03:22:27 58° NE
Cosmos 1943 4.1 03:26:28 10° NNW 03:31:53 46° ENE 03:35:57 17° SE
ATLAS CENTAUR R/B 3.2 03:32:59 24° E 03:32:59 24° E 03:35:23 10° ENE
NOSS 2-3 (E) 4.2 03:34:14 54° N 03:34:14 54° N 03:38:09 10° NNE
Cosmos 2266 Rocket 3.8 03:27:06 10° N 03:33:26 89° W 03:34:06 74° S
Atlas Centaur 2 4.1 03:35:37 21° SE 03:35:37 21° SE 03:39:22 10° ESE
Cosmos 2227 Rocket 4.1 03:35:08 17° WNW 03:35:55 17° NW 03:39:39 10° N
CZ-2D R/B 2.4 03:31:20 10° N 03:36:26 56° WNW 03:36:26 56° WNW
Cosmos 1898 Rocket 4.2 03:37:18 42° NW 03:37:18 42° NW 03:41:44 10° N
NOSS 3-1 (C) 3.8 03:38:19 44° WNW 03:38:52 45° NW 03:44:52 10° NNE
CZ-4B R/B 3.4 03:34:07 10° NNE 03:38:27 72° NE 03:38:27 72° NE
COBE Rocket 3.9 03:41:16 69° NNE 03:41:16 69° NNE 03:45:23 10° N
CBERS-1 4.0 03:36:48 10° NNE 03:41:56 74° ESE 03:42:02 74° ESE
ARIANE 5 R/B 3.7 03:41:29 10° NNE 03:46:20 37° E 03:47:54 31° SE
Cosmos 2150 Rocket 4.4 03:50:04 50° SE 03:50:45 54° ESE 03:55:52 10° NNE
NPP 4.0 03:46:04 10° N 03:51:14 50° WNW 03:51:14 50° WNW
SL-16 R/B 2.9 03:52:09 45° W 03:52:09 45° W 03:57:42 10° NNW
Cosmos 1544 Rocket 4.2 03:54:11 47° NW 03:54:11 47° NW 03:57:43 10° N
SL-08 R/B 4.3 03:50:58 24° SE 03:53:38 46° ENE 03:58:21 10° N
Cosmos 724 4.2 03:48:04 10° NW 03:54:06 76° WSW 03:55:37 53° S
BREEZE-M TANK 3.0 03:55:26 54° NW 03:56:09 70° NNE 04:03:57 10° ESE
NOSS 2-3 (D) 4.2 03:57:40 47° NW 03:57:40 47° NW 04:02:13 10° NNE
Cosmos 2227 4.2 03:57:13 60° W 03:57:50 64° WNW 04:03:34 10° NNE
Meteor 1-28 Rocket 4.4 03:57:35 35° E 03:58:16 39° ENE 04:01:50 10° N
Cosmos 1125 Rocket 4.1 04:06:35 36° SSE 04:08:13 50° ESE 04:13:18 10° NNE
IRS-1D 3.7 04:08:47 10° N 04:13:46 54° WNW 04:14:21 51° W
SL-16 R/B 4.3 04:11:05 10° WNW 04:11:42 12° WNW 04:11:42 12° WNW
Resurs 1-4 Rocket 3.4 04:11:23 10° NNW 04:15:36 25° WNW 04:15:53 25° WNW
Meteor 1-16 Rocket 4.1 04:14:10 45° S 04:15:54 81° E 04:21:30 10° NNE
Cosmos 1726 3.2 04:17:11 36° NW 04:17:11 36° NW 04:19:43 10° N
Cosmos 1602 Rocket 3.3 04:12:28 10° N 04:16:50 79° W 04:16:59 78° SW
Cosmos 2263 Rocket 2.5 04:15:55 44° W 04:16:53 49° WNW 04:22:17 10° NNE
CZ-2D R/B 4.1 04:15:02 10° NNE 04:18:53 46° E 04:19:53 37° SE
NOSS 3-1 (A) 4.3 04:25:05 28° W 04:27:04 35° NW 04:32:52 10° NNE
IRS-P3 4.2 04:24:28 10° N 04:29:45 61° WNW 04:31:18 43° SW
NOSS 8 (E) 4.4 04:31:18 71° NNE 04:31:18 71° NNE 04:34:04 10° NNE
Cosmos 1953 3.1 04:31:24 38° WNW 04:31:24 38° WNW 04:34:53 10° N
IDEFIX/ARIANE 42P 2.8 04:25:58 10° NNE 04:31:09 65° ESE 04:34:05 26° S
Meteor 1-21 Rocket 4.2 04:27:27 10° NNW 04:32:52 57° W 04:34:46 38° SSW
Cosmos 1703 3.2 04:29:44 10° N 04:33:43 83° E 04:35:02 41° SSE
Cosmos 2228 3.1 04:38:04 32° S 04:40:02 74° E 04:44:27 10° NNE
Cosmos 1844 Rocket 3.2 04:37:13 23° S 04:40:38 55° ESE 04:46:04 10° NNE
Meteor 2-8 Rocket 4.4 04:37:02 23° S 04:41:01 86° E 04:47:10 10° N
Cosmos 1328 3.7 04:38:12 10° N 04:42:14 87° E 04:44:11 29° S
Meteor 2-16 Rocket 4.4 04:43:07 10° NNW 04:49:12 64° W 04:53:56 17° S
CZ-4C R/B 3.9 04:46:14 10° SSE 04:49:22 46° ENE 04:52:36 10° N
ADEOS II 3.1 04:46:09 10° N 04:50:40 30° WNW 04:52:11 26° W
USA 215 3.3 04:44:29 10° NE 04:51:01 72° NW 04:55:00 25° WSW
Cosmos 1048 Rocket 3.9 04:48:12 10° NNW 04:53:19 66° WSW 04:58:28 10° S
Cosmos 1603 4.4 04:50:25 10° NW 04:55:21 30° WSW 04:56:26 28° WSW
USA 102 3.4 04:51:10 10° SSE 04:57:46 75° ENE 04:58:30 49° N
OAO 2 Rocket 4.1 04:57:14 28° SSW 04:59:13 39° S 05:04:05 10° ESE
Cosmos 1386 Rocket 4.5 04:54:30 10° N 05:00:33 82° E 05:06:34 10° S
Cosmos 2285 Rocket 4.5 04:58:52 26° WSW 05:02:04 45° WNW 05:08:05 10° N
Spot 4 Rocket 4.1 04:58:13 10° N 05:03:19 60° WNW 05:06:27 23° SW
Hubble Space Telescope 2.9 05:04:14 13° S 05:04:29 13° S 05:06:27 10° SE
Cosmos 1356 Rocket 3.3 05:06:05 23° SSW 05:08:34 71° W 05:12:41 10° N
Cosmos 1758 Rocket 3.9 05:04:38 10° NNW 05:08:43 41° W 05:10:56 23° SSW
ATLAS CENTAUR R/B 2.6 05:09:10 22° W 05:10:47 28° NW 05:14:13 10° N
Cosmos 1269 Rocket 4.5 05:05:39 10° NNW 05:10:56 65° ENE 05:16:11 10° SSE
Cosmos 1553 Rocket 4.2 05:07:55 21° SW 05:11:50 49° WNW 05:17:46 10° N
Cosmos 2058 Rocket 3.1 05:08:43 12° S 05:12:55 82° E 05:17:22 10° N
NOSS 2-2 (E) 3.0 05:12:57 27° SW 05:14:45 83° NW 05:18:35 10° NNE
NOSS 2-2 (D) 3.1 05:13:11 24° SSW 05:15:13 74° ESE 05:18:58 10° NE
OAO 3 Rocket 3.9 05:13:01 23° WSW 05:15:18 36° SSW 05:19:51 10° SE
Cosmos 1943 4.2 05:11:09 10° NW 05:15:35 24° WSW 05:17:35 20° SW
CSL-04 DEB 4.3 05:12:45 10° S 05:16:36 58° WSW 05:20:31 10° NNW
H-2A R/B 1.8 05:14:01 10° S 05:18:06 69° WSW 05:22:11 10° NNW
Delta 2 Rocket 3.7 05:17:46 26° SW 05:18:55 33° S 05:22:20 10° ESE
USA 267 3.9 05:15:12 10° ESE 05:21:37 61° NE 05:28:02 10° NW
Atlas Centaur 2 3.5 05:18:13 19° SW 05:22:28 36° S 05:29:36 10° ESE
MSX 3.9 05:17:38 10° N 05:23:21 65° WNW 05:28:51 11° SSW
ARIANE 5 R/B 3.7 05:20:53 10° N 05:25:15 27° WNW 05:28:14 16° WSW
Cosmos 1745 Rocket 4.0 05:19:29 10° NNW 05:25:38 59° W 05:31:40 10° S
Cosmos 1825 Rocket 4.3 05:24:13 10° NNW 05:28:04 32° W 05:31:16 14° SSW
CZ-2C R/B 3.4 05:26:26 10° N 05:29:57 37° WNW 05:32:22 17° SW
Cosmos 1953 Rocket 4.1 05:34:17 10° NNW 05:38:28 39° W 05:42:35 10° SSW
Landsat 5 3.8 05:36:17 10° S 05:39:59 40° W 05:43:51 10° NNW
ADEOS Rocket 4.3 05:32:33 10° SSE 05:40:03 60° ENE 05:47:39 10° N
ATLAS 3B CENTAUR R/B 4.5 05:31:27 10° W 05:40:05 21° SW 05:45:21 10° S
DEBRIS 3.3 05:38:25 12° W 05:40:06 24° NNW 05:41:57 10° NE
CZ-4B R/B 2.1 05:37:12 10° SSE 05:40:22 53° ENE 05:43:27 10° N
Cosmos 1455 3.9 05:36:58 10° SSE 05:40:29 35° E 05:44:02 10° NNE
SeaSat 1 2.5 05:37:24 10° NNE 05:42:22 90° NW 05:47:18 10° SSW
Lacrosse 5 rocket 3.5 05:38:52 10° S 05:42:35 25° ESE 05:46:22 10° ENE
Cosmos 1300 3.4 05:40:10 13° SW 05:43:13 35° WNW 05:46:45 10° N
Cosmos 2058 3.6 05:46:38 10° N 05:50:47 61° E 05:54:55 10° SSE
ERS-2 3.0 05:51:45 10° SSW 05:54:57 29° W 05:58:11 10° NW
Cosmos 1844 4.2 05:51:37 10° SW 05:57:08 45° WNW 06:02:40 10° NNE
CZ-3B R/B 3.6 05:56:35 10° SSE 05:57:52 14° ESE 05:59:37 10° ENE
NOSS 2-2 (C) 4.0 05:55:23 10° WSW 05:58:39 35° NW 06:02:13 10° NNE
TSX-5 4.3 05:58:09 10° S 06:01:11 45° ESE 06:04:16 10° NE
Cosmos 1709 Rocket 4.2 05:59:42 10° NNW 06:05:37 51° W 06:11:28 10° SSW
CZ-2C R/B 2.7 06:04:24 10° N 06:08:46 43° WNW 06:13:11 10° SW
IDEFIX/ARIANE 42P 4.3 06:07:00 10° NNW 06:10:11 17° WNW 06:13:22 10° W
